Hourly Weather Klatovy

Today, 29 July, Thursday

Time Temperature Precipitation Wind Pressure Humidity
00:00 +15°C° 0 mm 2 mps 724 mmHg 95%
01:00 +15°C° 0 mm 2 mps 724 mmHg 96%
02:00 +15°C° 0 mm 2 mps 724 mmHg 96%
03:00 +15°C° 0 mm 2 mps 724 mmHg 96%
04:00 +15°C° 0 mm 2 mps 724 mmHg 96%
05:00 +16°C° 0 mm 2 mps 724 mmHg 92%
06:00 +17°C° 0 mm 2 mps 724 mmHg 88%
07:00 +18°C° 0 mm 2 mps 725 mmHg 85%
08:00 +19°C° 0 mm 3 mps 725 mmHg 76%
09:00 +21°C° 0 mm 4 mps 725 mmHg 67%
10:00 +22°C° 0 mm 5 mps 725 mmHg 59%
11:00 +23°C° 0 mm 5 mps 725 mmHg 57%
12:00 +23°C° 0 mm 5 mps 724 mmHg 55%
13:00 +25°C° 0 mm 5 mps 724 mmHg 53%
14:00 +25°C° 0 mm 5 mps 724 mmHg 52%
15:00 +26°C° 0 mm 5 mps 724 mmHg 52%
16:00 +26°C° 0 mm 4 mps 724 mmHg 51%
17:00 +23°C° 0 mm 4 mps 724 mmHg 58%
18:00 +22°C° 0 mm 3 mps 723 mmHg 66%
19:00 +20°C° 0 mm 2 mps 723 mmHg 74%
20:00 +19°C° 0 mm 2 mps 724 mmHg 78%
21:00 +19°C° 0 mm 1 mps 724 mmHg 82%
22:00 +16°C° 0 mm 1 mps 724 mmHg 85%
23:00 +16°C° 0 mm 1 mps 724 mmHg 86%

Tomorrow, 30 July, Friday

Time Temperature Precipitation Wind Pressure Humidity
00:00 +15°C° 0 mm 1 mps 724 mmHg 87%
01:00 +15°C° 0 mm 1 mps 723 mmHg 88%
02:00 +15°C° 0 mm 1 mps 723 mmHg 89%
03:00 +15°C° 0 mm 1 mps 723 mmHg 90%
04:00 +14°C° 0 mm 0 mps 723 mmHg 91%
05:00 +15°C° 0 mm 0 mps 723 mmHg 87%
06:00 +16°C° 0 mm 0 mps 723 mmHg 83%
07:00 +17°C° 0 mm 0 mps 723 mmHg 79%
08:00 +21°C° 0 mm 1 mps 723 mmHg 74%
09:00 +23°C° 0 mm 1 mps 723 mmHg 69%
10:00 +25°C° 0 mm 1 mps 723 mmHg 63%
11:00 +26°C° 0 mm 2 mps 722 mmHg 59%
12:00 +27°C° 0 mm 2 mps 722 mmHg 55%
13:00 +28°C° 0 mm 3 mps 722 mmHg 50%
14:00 +29°C° 0 mm 3 mps 721 mmHg 51%
15:00 +29°C° 0 mm 3 mps 721 mmHg 51%
16:00 +29°C° 0 mm 3 mps 721 mmHg 51%
17:00 +27°C° 0 mm 3 mps 721 mmHg 59%
18:00 +26°C° 0 mm 2 mps 720 mmHg 67%
19:00 +24°C° 0 mm 1 mps 720 mmHg 74%
20:00 +23°C° 0.2 mm 1 mps 720 mmHg 78%
21:00 +22°C° 0.2 mm 1 mps 720 mmHg 82%
22:00 +21°C° 0.2 mm 1 mps 720 mmHg 86%
23:00 +19°C° 1.2 mm 2 mps 720 mmHg 89%

Day after tomorrow, 31 July, Saturday

Time Temperature Precipitation Wind Pressure Humidity
00:00 +19°C° 1.2 mm 2 mps 721 mmHg 91%
01:00 +19°C° 1.2 mm 3 mps 721 mmHg 93%
02:00 +19°C° 1.7 mm 3 mps 721 mmHg 94%
03:00 +18°C° 1.7 mm 2 mps 721 mmHg 95%
04:00 +18°C° 1.7 mm 2 mps 721 mmHg 96%
05:00 +18°C° 0.1 mm 2 mps 721 mmHg 94%
06:00 +18°C° 0.1 mm 2 mps 721 mmHg 93%
07:00 +19°C° 0.1 mm 3 mps 721 mmHg 91%
08:00 +20°C° 0 mm 4 mps 721 mmHg 81%
09:00 +21°C° 0 mm 4 mps 721 mmHg 71%
10:00 +21°C° 0 mm 5 mps 722 mmHg 61%
11:00 +22°C° 0 mm 5 mps 722 mmHg 58%
12:00 +23°C° 0 mm 5 mps 721 mmHg 54%
13:00 +25°C° 0 mm 5 mps 721 mmHg 51%
14:00 +23°C° 0 mm 5 mps 721 mmHg 53%
15:00 +23°C° 0 mm 4 mps 721 mmHg 56%
16:00 +23°C° 0 mm 4 mps 721 mmHg 58%
17:00 +22°C° 0 mm 3 mps 721 mmHg 64%
18:00 +21°C° 0 mm 3 mps 721 mmHg 70%
19:00 +19°C° 0 mm 2 mps 721 mmHg 75%
20:00 +18°C° 0 mm 2 mps 721 mmHg 79%
21:00 +18°C° 0 mm 1 mps 721 mmHg 82%
22:00 +16°C° 0 mm 1 mps 721 mmHg 85%
23:00 +16°C° 0 mm 1 mps 721 mmHg 85%

1 August, Sunday

Time Temperature Precipitation Wind Pressure Humidity
00:00 +14°C° 0 mm 0 mps 720 mmHg 85%
01:00 +14°C° 0 mm 0 mps 720 mmHg 85%
02:00 +15°C° 2.2 mm 1 mps 720 mmHg 89%
03:00 +15°C° 2.2 mm 1 mps 720 mmHg 92%
04:00 +15°C° 2.2 mm 2 mps 720 mmHg 96%
05:00 +15°C° 1 mm 1 mps 720 mmHg 96%
06:00 +15°C° 1 mm 1 mps 720 mmHg 95%
07:00 +15°C° 1 mm 1 mps 720 mmHg 95%
08:00 +15°C° 0.4 mm 1 mps 720 mmHg 95%
09:00 +15°C° 0.4 mm 1 mps 721 mmHg 95%
10:00 +15°C° 0.4 mm 2 mps 721 mmHg 94%
11:00 +15°C° 0.8 mm 2 mps 721 mmHg 94%
12:00 +15°C° 0.8 mm 2 mps 721 mmHg 94%
13:00 +15°C° 0.8 mm 2 mps 721 mmHg 94%
14:00 +15°C° 0.2 mm 2 mps 722 mmHg 94%
15:00 +15°C° 0.2 mm 2 mps 722 mmHg 93%
16:00 +15°C° 0.2 mm 2 mps 722 mmHg 93%
17:00 +15°C° 0 mm 2 mps 722 mmHg 93%
18:00 +15°C° 0 mm 2 mps 722 mmHg 94%
19:00 +14°C° 0 mm 2 mps 722 mmHg 94%
20:00 +14°C° 0 mm 2 mps 722 mmHg 94%
21:00 +14°C° 0 mm 2 mps 722 mmHg 94%
22:00 +14°C° 0 mm 1 mps 722 mmHg 94%
23:00 +13°C° 0 mm 1 mps 722 mmHg 94%

2 August, Monday

Time Temperature Precipitation Wind Pressure Humidity
00:00 +13°C° 0 mm 1 mps 722 mmHg 95%
01:00 +12°C° 0 mm 1 mps 722 mmHg 95%
02:00 +12°C° 0 mm 2 mps 723 mmHg 95%
03:00 +12°C° 0 mm 2 mps 723 mmHg 96%
04:00 +12°C° 0 mm 2 mps 723 mmHg 96%
05:00 +13°C° 0 mm 2 mps 723 mmHg 94%
06:00 +14°C° 0 mm 2 mps 723 mmHg 92%
07:00 +15°C° 0 mm 2 mps 723 mmHg 90%
08:00 +16°C° 0 mm 3 mps 724 mmHg 83%
09:00 +18°C° 0 mm 3 mps 724 mmHg 76%
10:00 +19°C° 0 mm 4 mps 724 mmHg 69%
11:00 +20°C° 0.1 mm 4 mps 724 mmHg 65%
12:00 +21°C° 0.1 mm 4 mps 724 mmHg 61%
13:00 +22°C° 0.1 mm 4 mps 724 mmHg 57%
14:00 +22°C° 0 mm 4 mps 724 mmHg 58%
15:00 +21°C° 0 mm 4 mps 724 mmHg 60%
16:00 +21°C° 0 mm 4 mps 724 mmHg 61%
17:00 +20°C° 0 mm 3 mps 724 mmHg 67%
18:00 +19°C° 0 mm 2 mps 724 mmHg 72%
19:00 +19°C° 0 mm 1 mps 724 mmHg 77%
20:00 +18°C° 0 mm 1 mps 724 mmHg 80%
21:00 +16°C° 0 mm 1 mps 724 mmHg 82%
22:00 +15°C° 0 mm 1 mps 725 mmHg 85%
23:00 +14°C° 0 mm 1 mps 725 mmHg 86%

3 August, Tuesday

Time Temperature Precipitation Wind Pressure Humidity
00:00 +14°C° 0 mm 1 mps 725 mmHg 87%
01:00 +14°C° 0 mm 1 mps 725 mmHg 88%
02:00 +14°C° 0 mm 1 mps 725 mmHg 89%
03:00 +13°C° 0 mm 1 mps 725 mmHg 89%
04:00 +13°C° 0 mm 1 mps 724 mmHg 90%
05:00 +15°C° 0 mm 1 mps 725 mmHg 86%
06:00 +16°C° 0 mm 1 mps 725 mmHg 82%
07:00 +18°C° 0 mm 1 mps 725 mmHg 78%
08:00 +19°C° 0.3 mm 1 mps 725 mmHg 74%
09:00 +20°C° 0.3 mm 2 mps 725 mmHg 70%
10:00 +21°C° 0.3 mm 2 mps 725 mmHg 66%
11:00 +23°C° 0.2 mm 2 mps 725 mmHg 61%
12:00 +24°C° 0.2 mm 2 mps 725 mmHg 57%
13:00 +25°C° 0.2 mm 2 mps 724 mmHg 52%
14:00 +25°C° 0 mm 3 mps 724 mmHg 52%
15:00 +25°C° 0 mm 3 mps 724 mmHg 52%
16:00 +25°C° 0 mm 3 mps 723 mmHg 51%
17:00 +24°C° 0 mm 2 mps 723 mmHg 58%
18:00 +22°C° 0 mm 1 mps 723 mmHg 65%
19:00 +19°C° 0 mm 0 mps 723 mmHg 72%
20:00 +18°C° 0 mm 0 mps 723 mmHg 75%
21:00 +19°C° 0 mm 1 mps 723 mmHg 77%
22:00 +18°C° 0 mm 1 mps 723 mmHg 80%
23:00 +16°C° 0 mm 1 mps 723 mmHg 81%
Show more